TimeEST,TemperatureF,Dew PointF,Humidity,Sea Level PressureIn,VisibilityMPH,Wind Direction,Wind SpeedMPH,Gust SpeedMPH,PrecipitationIn,Events,Conditions,WindDirDegrees,DateUTC
12:15 AM,37.4,32.0,81,30.35,10.0,NNE,3.5,-,0.00,,Clear,30,2013-12-11 05:15:00
12:35 AM,37.4,32.0,81,30.35,10.0,Calm,Calm,-,0.00,,Clear,0,2013-12-11 05:35:00
12:55 AM,37.4,32.0,81,30.35,10.0,Calm,Calm,-,0.00,,Clear,0,2013-12-11 05:55:00
1:35 AM,33.8,32.0,93,30.35,10.0,Calm,Calm,-,0.00,,Clear,0,2013-12-11 06:35:00
1:55 AM,32.0,32.0,100,30.35,10.0,Calm,Calm,-,0.00,,Clear,0,2013-12-11 06:55:00
2:15 AM,32.0,32.0,100,30.35,10.0,Calm,Calm,-,0.00,,Clear,0,2013-12-11 07:15:00
2:35 AM,32.0,32.0,100,30.35,10.0,Calm,Calm,-,0.00,,Clear,0,2013-12-11 07:35:00
2:55 AM,32.0,32.0,100,30.36,10.0,Calm,Calm,-,0.00,,Clear,0,2013-12-11 07:55:00
3:15 AM,32.0,32.0,100,30.37,10.0,Calm,Calm,-,0.00,,Clear,0,2013-12-11 08:15:00
3:35 AM,32.0,30.2,93,30.37,10.0,Calm,Calm,-,0.00,,Clear,0,2013-12-11 08:35:00
3:55 AM,30.2,30.2,100,30.37,10.0,Calm,Calm,-,0.00,,Clear,0,2013-12-11 08:55:00
4:15 AM,30.2,30.2,100,30.37,10.0,Calm,Calm,-,0.00,,Clear,0,2013-12-11 09:15:00
4:35 AM,30.2,30.2,100,30.38,10.0,Calm,Calm,-,0.00,,Clear,0,2013-12-11 09:35:00
4:55 AM,30.2,30.2,100,30.39,10.0,Calm,Calm,-,0.00,,Clear,0,2013-12-11 09:55:00
5:15 AM,30.2,30.2,100,30.40,10.0,Calm,Calm,-,0.00,,Clear,0,2013-12-11 10:15:00
5:35 AM,30.2,30.2,100,30.41,10.0,Calm,Calm,-,0.00,,Clear,0,2013-12-11 10:35:00
5:55 AM,30.2,30.2,100,30.41,10.0,Calm,Calm,-,0.00,,Clear,0,2013-12-11 10:55:00
6:15 AM,30.2,30.2,100,30.42,10.0,Calm,Calm,-,0.00,,Clear,0,2013-12-11 11:15:00
6:35 AM,30.2,30.2,100,30.42,10.0,Calm,Calm,-,0.00,,Clear,0,2013-12-11 11:35:00
6:55 AM,30.2,28.4,93,30.43,10.0,Calm,Calm,-,0.00,,Clear,0,2013-12-11 11:55:00
7:15 AM,30.2,30.2,100,30.43,10.0,Calm,Calm,-,0.00,,Clear,0,2013-12-11 12:15:00
7:35 AM,30.2,30.2,100,30.44,10.0,Calm,Calm,-,0.00,,Clear,0,2013-12-11 12:35:00
7:55 AM,30.2,30.2,100,30.45,10.0,Calm,Calm,-,0.00,,Clear,0,2013-12-11 12:55:00
8:15 AM,32.0,30.2,93,30.46,10.0,Calm,Calm,-,0.00,,Clear,0,2013-12-11 13:15:00
8:35 AM,32.0,30.2,93,30.46,10.0,Calm,Calm,-,0.00,,Clear,0,2013-12-11 13:35:00
8:55 AM,33.8,32.0,93,30.46,10.0,Calm,Calm,-,0.00,,Clear,0,2013-12-11 13:55:00
9:15 AM,35.6,32.0,87,30.47,10.0,Calm,Calm,-,0.00,,Clear,0,2013-12-11 14:15:00
9:35 AM,37.4,32.0,81,30.47,10.0,Calm,Calm,-,0.00,,Clear,0,2013-12-11 14:35:00
9:55 AM,39.2,32.0,75,30.48,10.0,Calm,Calm,-,0.00,,Clear,0,2013-12-11 14:55:00
10:15 AM,41.0,28.4,61,30.48,10.0,East,3.5,-,0.00,,Clear,80,2013-12-11 15:15:00
10:35 AM,42.8,28.4,57,30.48,10.0,East,6.9,-,0.00,,Clear,100,2013-12-11 15:35:00
10:55 AM,42.8,28.4,57,30.48,10.0,East,5.8,-,0.00,,Clear,90,2013-12-11 15:55:00
11:15 AM,44.6,26.6,49,30.46,10.0,East,4.6,-,0.00,,Clear,100,2013-12-11 16:15:00
11:35 AM,44.6,26.6,49,30.45,10.0,East,4.6,-,0.00,,Clear,90,2013-12-11 16:35:00
11:55 AM,46.4,26.6,46,30.44,10.0,SE,3.5,-,0.00,,Clear,130,2013-12-11 16:55:00
12:15 PM,46.4,24.8,43,30.43,10.0,Calm,Calm,-,0.00,,Clear,0,2013-12-11 17:15:00
12:35 PM,48.2,28.4,46,30.41,10.0,Calm,Calm,-,0.00,,Clear,0,2013-12-11 17:35:00
12:55 PM,48.2,30.2,50,30.41,10.0,Calm,Calm,-,0.00,,Clear,0,2013-12-11 17:55:00
1:15 PM,50.0,28.4,43,30.39,10.0,South,3.5,-,0.00,,Clear,190,2013-12-11 18:15:00
1:35 PM,50.0,28.4,43,30.38,10.0,South,3.5,-,0.00,,Clear,180,2013-12-11 18:35:00
1:55 PM,50.0,28.4,43,30.37,10.0,SSE,4.6,-,0.00,,Clear,150,2013-12-11 18:55:00
2:15 PM,51.8,28.4,41,30.36,10.0,Calm,Calm,-,0.00,,Clear,0,2013-12-11 19:15:00
2:35 PM,51.8,28.4,41,30.35,10.0,Calm,Calm,-,0.00,,Clear,0,2013-12-11 19:35:00
2:55 PM,51.8,28.4,41,30.35,10.0,Calm,Calm,-,0.00,,Clear,0,2013-12-11 19:55:00
3:15 PM,51.8,28.4,41,30.35,10.0,Calm,Calm,-,0.00,,Clear,0,2013-12-11 20:15:00
3:35 PM,51.8,28.4,41,30.34,10.0,Calm,Calm,-,0.00,,Clear,0,2013-12-11 20:35:00
3:55 PM,53.6,28.4,38,30.35,10.0,Calm,Calm,-,0.00,,Clear,0,2013-12-11 20:55:00
4:15 PM,51.8,30.2,44,30.35,10.0,Calm,Calm,-,0.00,,Clear,0,2013-12-11 21:15:00
4:35 PM,51.8,28.4,41,30.35,10.0,Calm,Calm,-,0.00,,Clear,0,2013-12-11 21:35:00
4:55 PM,51.8,30.2,44,30.35,10.0,Calm,Calm,-,0.00,,Clear,0,2013-12-11 21:55:00
5:15 PM,50.0,32.0,50,30.35,10.0,Calm,Calm,-,0.00,,Clear,0,2013-12-11 22:15:00
5:35 PM,46.4,32.0,57,30.35,10.0,Calm,Calm,-,0.00,,Clear,0,2013-12-11 22:35:00
5:55 PM,44.6,33.8,66,30.35,10.0,Calm,Calm,-,0.00,,Clear,0,2013-12-11 22:55:00
6:15 PM,42.8,33.8,70,30.35,10.0,Calm,Calm,-,0.00,,Clear,0,2013-12-11 23:15:00
6:35 PM,42.8,35.6,76,30.35,10.0,Calm,Calm,-,0.00,,Mostly Cloudy,0,2013-12-11 23:35:00
6:55 PM,42.8,37.4,81,30.35,10.0,Calm,Calm,-,0.00,,Mostly Cloudy,0,2013-12-11 23:55:00
7:15 PM,42.8,37.4,81,30.35,10.0,Calm,Calm,-,0.00,,Partly Cloudy,0,2013-12-12 00:15:00
7:35 PM,41.0,37.4,87,30.36,10.0,Calm,Calm,-,0.00,,Partly Cloudy,0,2013-12-12 00:35:00
7:55 PM,39.2,35.6,87,30.36,10.0,Calm,Calm,-,0.00,,Scattered Clouds,0,2013-12-12 00:55:00
8:15 PM,41.0,35.6,81,30.35,10.0,Calm,Calm,-,0.00,,Scattered Clouds,0,2013-12-12 01:15:00
8:35 PM,39.2,37.4,93,30.34,10.0,Calm,Calm,-,0.00,,Partly Cloudy,0,2013-12-12 01:35:00
8:55 PM,41.0,37.4,87,30.34,10.0,Calm,Calm,-,0.00,,Scattered Clouds,0,2013-12-12 01:55:00
9:15 PM,39.2,37.4,93,30.34,10.0,Calm,Calm,-,0.00,,Scattered Clouds,0,2013-12-12 02:15:00
9:35 PM,39.2,37.4,93,30.34,10.0,Calm,Calm,-,0.00,,Clear,0,2013-12-12 02:35:00
9:55 PM,39.2,35.6,87,30.34,10.0,Calm,Calm,-,0.00,,Clear,0,2013-12-12 02:55:00
10:15 PM,37.4,35.6,93,30.34,10.0,Calm,Calm,-,0.00,,Clear,0,2013-12-12 03:15:00
10:35 PM,35.6,35.6,100,30.33,10.0,Calm,Calm,-,0.00,,Clear,0,2013-12-12 03:35:00
10:55 PM,35.6,33.8,93,30.33,10.0,Calm,Calm,-,0.00,,Clear,0,2013-12-12 03:55:00
11:15 PM,35.6,33.8,93,30.33,10.0,Calm,Calm,-,0.00,,Clear,0,2013-12-12 04:15:00
11:35 PM,35.6,33.8,93,30.33,10.0,Calm,Calm,-,0.00,,Clear,0,2013-12-12 04:35:00
11:55 PM,35.6,33.8,93,30.32,10.0,Calm,Calm,-,0.00,,Clear,0,2013-12-12 04:55:00